msy.com.au alexa rank chart, msy.com.au alexa rank daily changes

msy.com.au alexa rank chart, msy.com.au alexa rank daily changes

msy.com.au
Actual rank:
34 206

RANK HISTORY

Date Rank Diff
2017/04/28 34 206 +663
2017/04/27 33 543 +29
2017/04/26 33 514 -118
2017/04/25 33 632 +90
2017/04/24 33 542 -41
2017/04/23 33 583 -255
2017/04/22 33 838 -21
2017/04/21 33 859 -48
2017/04/20 33 907 +103
2017/04/19 33 804 +35
2017/04/18 33 769 -121
2017/04/17 33 890 -131
2017/04/16 34 021 +155
2017/04/15 33 866 +582
2017/04/14 33 284 -129
2017/04/13 33 413 +542
2017/04/12 32 871 +69
2017/04/11 32 802 +159
2017/04/10 32 643 +10
2017/04/09 32 633 +47
2017/04/08 32 586 +381
2017/04/07 32 205 +484
2017/04/06 31 721 +353
2017/04/05 31 368 +137
2017/04/04 31 231 +137
2017/04/03 31 094 +215
2017/04/02 30 879 +72
2017/04/01 30 807 +212
2017/03/31 30 595 +76
2017/03/30 30 519 -24
2017/03/29 30 543 +10
2017/03/28 30 533 -67
2017/03/27 30 600 +126
2017/03/26 30 474 +465
2017/03/25 30 009 +164
2017/03/24 29 845 +178
2017/03/23 29 667 +60
2017/03/22 29 607 +24
2017/03/21 29 583 +285
2017/03/20 29 298 +191
2017/03/19 29 107 -142
2017/03/18 29 249 -41
2017/03/17 29 290 -22
2017/03/15 29 312 -630
2017/03/14 29 942 +52
2017/03/13 29 890 -657
2017/03/12 30 547 -49
2017/03/11 30 596 -328
2017/03/10 30 924 +13
2017/03/09 30 911 -310
2017/03/08 31 221 -1 485
2017/03/07 32 706 -213
2017/03/06 32 919 +129
2017/03/01 32 790 -203
2017/02/28 32 993 -760
2017/02/27 33 753 -441
2017/02/26 34 194

WIDGET FOR YOUR SITE

DOMAINS WITH THE NEAREST RANK

Domain Rank
politklubok.ru 34 201
azzzian.com 34 202
sonangol.co.ao 34 203
clkmg.com 34 204
scalelab.com 34 205
msy.com.au 34 206
aboalarm.de 34 207
beauties.life 34 208
uniroma3.it 34 209
aitaotu.com 34 210
humankinetics.com 34 211

DOMAINS WITH THE NEAREST RANK BY TLD .com.au

Domain Rank
thenewdaily.com.au 32 585
cashrewards.com.au 32 909
truelocal.com.au 33 010
translink.com.au 33 271
citibank.com.au 33 404
msy.com.au 34 206
adidas.com.au 34 389
watoday.com.au 34 701
yelp.com.au 34 718
shopstyle.com.au 35 592
myvodafone.com.au 35 607